DW9029 San Juan de Aznalfarache ES current weather conditions

sailwx.info

Wind from 352 at 0 knots gusting 2

Air temperature 11.7° C
Dewpoint 4.9° C

Last reported at 2018-Feb-21 03:09 UTC.
Time now 2018-Feb-21 03:31 UTC

Location: N 37°22' W 006°02'.
View on Google Maps.

See reports from other nearby stations

  
Tides and Currents Weather Stations Pressure Air Temp Water Temp Dewpoint Dewpoint Depression Visibility Wind Speed Wind Dir Waves Ship Positions
date/time (UTC)wind fromknots sea level pressurealtimeterstation pressurevisibilityair tempwater tempwave heightnotes
2018-Feb-21 03:09 352 0 gusting 2 11.7
2018-Feb-21 03:04 349 11.7
2018-Feb-21 02:49 004 3 gusting 5 11.7
2018-Feb-21 02:44 013 3 gusting 5 11.7
2018-Feb-21 02:39 013 0 gusting 4 11.7
2018-Feb-21 02:34 005 11.7
2018-Feb-21 02:19 348 1 gusting 2 11.7
2018-Feb-21 02:14 343 2 gusting 4 11.7
2018-Feb-21 02:09 350 1 gusting 5 11.7
2018-Feb-21 02:04 336 11.7
2018-Feb-21 01:49 336 12.2
2018-Feb-21 01:44 335 12.8
2018-Feb-21 01:39 335 12.8
2018-Feb-21 01:34 334 12.8
2018-Feb-21 01:19 321 12.8
2018-Feb-21 01:14 350 12.8
2018-Feb-21 01:09 334 12.2
2018-Feb-21 01:04 348 12.2
2018-Feb-21 00:49 007 12.8
2018-Feb-21 00:44 006 0 gusting 2 13.3
2018-Feb-21 00:39 009 1 gusting 2 13.3
2018-Feb-21 00:34 006 0 gusting 5 13.9
2018-Feb-21 00:19 009 1 gusting 4 13.9
2018-Feb-21 00:14 004 1 gusting 2 13.9
2018-Feb-21 00:09 355 0 gusting 2 13.9
2018-Feb-21 00:04 343 0 gusting 1 13.9
2018-Feb-20 23:49 307 15.0
2018-Feb-20 23:44 307 15.0
2018-Feb-20 23:39 307 15.0
2018-Feb-20 23:34 307 15.0
2018-Feb-20 23:19 339 0 gusting 1 14.4
2018-Feb-20 23:14 343 14.4
2018-Feb-20 23:09 343 0 gusting 1 15.0
2018-Feb-20 23:04 339 0 gusting 1 15.0
2018-Feb-20 22:49 344 15.0
2018-Feb-20 22:44 344 15.6
2018-Feb-20 22:39 344 15.6
2018-Feb-20 22:34 344 15.6
2018-Feb-20 22:19 344 16.1
2018-Feb-20 22:14 344 16.1
2018-Feb-20 22:09 344 15.6
2018-Feb-20 22:04 344 15.6
2018-Feb-20 21:49 344 15.6
2018-Feb-20 21:44 344 15.6
2018-Feb-20 21:39 342 15.6
2018-Feb-20 21:34 342 15.6
2018-Feb-20 21:19 342 16.1
2018-Feb-20 21:14 342 16.1
2018-Feb-20 21:09 342 15.6
2018-Feb-20 21:04 343 15.6
2018-Feb-20 20:49 343 16.7
2018-Feb-20 20:44 342 16.7
2018-Feb-20 20:39 342 16.7
2018-Feb-20 20:34 342 16.7
2018-Feb-20 20:19 342 16.7
2018-Feb-20 20:14 342 17.2
2018-Feb-20 20:09 342 17.2
2018-Feb-20 20:04 343 17.2
2018-Feb-20 19:49 083 17.2
2018-Feb-20 19:44 084 16.7
2018-Feb-20 19:39 084 17.2
2018-Feb-20 19:34 084 17.2
2018-Feb-20 19:19 084 17.8
2018-Feb-20 19:14 084 17.8
2018-Feb-20 19:09 084 17.8
2018-Feb-20 19:04 084 18.3
2018-Feb-20 18:49 084 18.9
2018-Feb-20 18:44 084 19.4
2018-Feb-20 18:39 084 19.4
2018-Feb-20 18:34 084 19.4
2018-Feb-20 18:19 084 20.0
2018-Feb-20 18:14 084 20.0
2018-Feb-20 18:09 084 20.0
2018-Feb-20 18:04 084 20.0
2018-Feb-20 17:49 084 20.6
2018-Feb-20 17:44 084 20.6
2018-Feb-20 17:39 084 21.1
2018-Feb-20 17:34 084 21.1
2018-Feb-20 17:19 074 21.7
2018-Feb-20 17:14 072 21.1
2018-Feb-20 17:09 071 21.1
2018-Feb-20 17:04 072 21.1
2018-Feb-20 16:49 061 21.1
2018-Feb-20 16:44 069 0 gusting 2 21.1
2018-Feb-20 16:39 062 21.1
2018-Feb-20 16:34 022 21.1
2018-Feb-20 16:19 067 0 gusting 2 21.1
2018-Feb-20 16:14 042 0 gusting 2 21.1
2018-Feb-20 16:09 069 21.1
2018-Feb-20 16:04 067 0 gusting 6 21.1
2018-Feb-20 15:49 055 0 gusting 2 21.1
2018-Feb-20 15:44 059 20.6
2018-Feb-20 15:39 066 0 gusting 6 20.6
2018-Feb-20 15:34 088 0 gusting 7 20.6
2018-Feb-20 15:19 351 0 gusting 2 21.1
2018-Feb-20 15:14 346 1 gusting 5 20.6
2018-Feb-20 15:09 031 20.6
2018-Feb-20 15:04 056 1 gusting 8 20.6
2018-Feb-20 14:49 040 4 gusting 10 20.6
2018-Feb-20 14:44 055 0 gusting 8 20.6
2018-Feb-20 14:39 045 2 gusting 10 20.6
2018-Feb-20 14:34 079 2 gusting 10 20.6
2018-Feb-20 14:19 027 0 gusting 7 20.0
2018-Feb-20 14:14 054 4 gusting 10 20.0
2018-Feb-20 14:09 026 1 gusting 2 20.0
2018-Feb-20 14:04 045 2 gusting 12 20.0
2018-Feb-20 13:49 111 2 gusting 10 19.4
2018-Feb-20 13:44 063 3 gusting 6 19.4
2018-Feb-20 13:39 065 2 gusting 8 19.4
2018-Feb-20 13:34 074 4 gusting 8 19.4
2018-Feb-20 13:19 100 2 gusting 6 19.4
2018-Feb-20 13:14 050 6 gusting 11 19.4
2018-Feb-20 13:09 001 2 gusting 6 19.4
2018-Feb-20 13:04 022 3 gusting 8 18.9
2018-Feb-20 12:49 032 6 gusting 8 18.3
2018-Feb-20 12:44 021 5 gusting 10 18.3
2018-Feb-20 12:39 025 4 gusting 7 18.3
2018-Feb-20 12:34 087 1 gusting 10 18.3
2018-Feb-20 12:19 064 5 gusting 10 17.8
2018-Feb-20 12:14 063 5 gusting 10 17.8
2018-Feb-20 12:09 071 2 gusting 6 17.8
2018-Feb-20 12:04 055 2 gusting 7 17.8
2018-Feb-20 11:49 063 4 gusting 7 17.8
2018-Feb-20 11:44 028 1 gusting 2 17.2
2018-Feb-20 11:39 090 1 gusting 7 16.7
2018-Feb-20 11:34 028 1 gusting 8 16.7
2018-Feb-20 11:19 041 5 gusting 10 16.7
2018-Feb-20 11:14 058 2 gusting 6 16.1
2018-Feb-20 11:09 011 2 gusting 6 16.1
2018-Feb-20 11:04 022 2 gusting 6 15.6
2018-Feb-20 10:49 065 2 gusting 6 14.4
2018-Feb-20 10:44 349 4 gusting 6 14.4
2018-Feb-20 10:39 011 1 gusting 6 14.4
2018-Feb-20 10:34 015 1 gusting 6 13.9
2018-Feb-20 10:19 020 1 gusting 4 13.3
2018-Feb-20 10:14 018 12.8
2018-Feb-20 10:09 023 0 gusting 4 12.8
2018-Feb-20 10:04 037 2 gusting 6 12.8
2018-Feb-20 09:49 035 12.2
2018-Feb-20 09:44 333 0 gusting 2 12.2
2018-Feb-20 09:39 012 11.7
2018-Feb-20 09:34 024 2 gusting 4 11.7
2018-Feb-20 09:19 020 2 gusting 5 11.1
2018-Feb-20 09:14 022 2 gusting 4 11.1
2018-Feb-20 09:09 022 3 gusting 5 10.6
2018-Feb-20 09:04 026 0 gusting 5 10.6
2018-Feb-20 08:49 016 1 gusting 4 10.0
2018-Feb-20 08:44 355 1 gusting 5 10.0
2018-Feb-20 08:39 023 1 gusting 5 9.4
2018-Feb-20 08:34 014 0 gusting 5 9.4
2018-Feb-20 08:19 352 2 gusting 5 8.9
2018-Feb-20 08:14 355 2 gusting 4 8.9
2018-Feb-20 08:09 348 1 gusting 4 8.9
2018-Feb-20 08:04 8.9
2018-Feb-20 07:49 008 4 gusting 6 8.3
2018-Feb-20 07:44 006 4 gusting 6 8.3
2018-Feb-20 07:39 020 3 gusting 5 8.9
2018-Feb-20 07:34 005 3 gusting 6 8.9
2018-Feb-20 07:19 357 2 gusting 4 8.3
2018-Feb-20 07:14 006 2 gusting 5 8.3
2018-Feb-20 07:09 009 4 gusting 6 8.3
2018-Feb-20 07:04 004 2 gusting 6 8.3
2018-Feb-20 06:49 006 4 gusting 6 8.9
2018-Feb-20 06:44 009 4 gusting 6 8.9
2018-Feb-20 06:39 013 3 gusting 6 8.9
2018-Feb-20 06:34 010 2 gusting 4 8.9
2018-Feb-20 06:19 009 0 gusting 6 9.4
2018-Feb-20 06:14 010 0 gusting 2 9.4
2018-Feb-20 06:09 355 9.4
2018-Feb-20 06:04 355 9.4
2018-Feb-20 05:49 355 1 gusting 2 9.4
2018-Feb-20 05:44 9.4
2018-Feb-20 05:39 356 2 gusting 4 9.4
2018-Feb-20 05:34 002 2 gusting 4 9.4
2018-Feb-20 05:19 339 1 gusting 2 9.4
2018-Feb-20 05:14 353 1 gusting 2 9.4
2018-Feb-20 05:09 355 0 gusting 2 9.4
2018-Feb-20 05:04 355 9.4
2018-Feb-20 04:49 355 9.4
2018-Feb-20 04:44 355 9.4
2018-Feb-20 04:39 355 9.4
2018-Feb-20 04:34 355 9.4
2018-Feb-20 04:19 355 8.9
2018-Feb-20 04:14 355 9.4
2018-Feb-20 04:09 355 9.4
2018-Feb-20 04:04 355 9.4
2018-Feb-20 03:49 355 10.0
2018-Feb-20 03:44 355 10.0
2018-Feb-20 03:39 355 10.6
2018-Feb-20 03:34 355 10.6
2018-Feb-20 03:19 007 1 gusting 2 10.6
2018-Feb-20 03:14 353 1 gusting 2 10.6
2018-Feb-20 03:09 346 1 gusting 2 10.0
2018-Feb-20 03:04 338 10.0
2018-Feb-20 02:49 326 10.0
2018-Feb-20 02:44 326 10.0
2018-Feb-20 02:39 326 10.0
2018-Feb-20 02:34 326 10.6
2018-Feb-20 02:19 326 10.0
2018-Feb-20 02:14 326 10.0
2018-Feb-20 02:09 326 10.0
2018-Feb-20 02:04 326 10.0
2018-Feb-20 01:49 326 9.4
2018-Feb-20 01:44 326 10.0
2018-Feb-20 01:39 326 10.0
2018-Feb-20 01:34 326 10.0
2018-Feb-20 01:19 326 10.0
2018-Feb-20 01:14 326 10.0
2018-Feb-20 01:09 326 10.0
2018-Feb-20 01:04 326 10.6
2018-Feb-20 00:49 326 12.2
2018-Feb-20 00:44 326 12.8
2018-Feb-20 00:39 326 12.8
2018-Feb-20 00:34 325 12.8
2018-Feb-20 00:19 325 12.2
2018-Feb-20 00:14 325 12.2
2018-Feb-20 00:09 325 12.2
2018-Feb-20 00:04 325 12.2
2018-Feb-19 23:49 335 12.2
2018-Feb-19 23:44 335 12.2
2018-Feb-19 23:39 334 12.2
2018-Feb-19 23:34 304 11.7
2018-Feb-19 23:19 293 11.7
2018-Feb-19 23:14 293 11.7
2018-Feb-19 23:09 294 11.7
2018-Feb-19 23:04 293 11.7
2018-Feb-19 22:49 293 12.2
2018-Feb-19 22:44 294 12.2
2018-Feb-19 22:39 293 12.8
2018-Feb-19 22:34 293 12.8
2018-Feb-19 22:19 293 12.8
2018-Feb-19 22:14 293 12.8
2018-Feb-19 22:09 293 12.8
2018-Feb-19 22:04 293 13.3
2018-Feb-19 21:49 293 13.9
2018-Feb-19 21:44 293 13.9
2018-Feb-19 21:39 293 13.9
2018-Feb-19 21:34 293 13.9
2018-Feb-19 21:19 293 13.9
2018-Feb-19 21:14 293 14.4
2018-Feb-19 21:09 293 14.4
2018-Feb-19 21:04 293 13.9
2018-Feb-19 20:49 063 14.4
2018-Feb-19 20:44 062 15.0
2018-Feb-19 20:39 062 15.0
2018-Feb-19 20:34 062 15.0
2018-Feb-19 20:19 063 15.0
2018-Feb-19 20:14 063 15.6
2018-Feb-19 20:09 063 15.6
2018-Feb-19 20:04 063 15.6
2018-Feb-19 19:49 063 15.6
2018-Feb-19 19:44 063 15.6
2018-Feb-19 19:39 063 16.1
2018-Feb-19 19:34 064 16.1
2018-Feb-19 19:19 064 16.1
2018-Feb-19 19:14 064 16.1
2018-Feb-19 19:09 064 16.1
2018-Feb-19 19:04 064 16.7
2018-Feb-19 18:49 064 16.7
2018-Feb-19 18:44 064 17.2
2018-Feb-19 18:39 064 17.2
2018-Feb-19 18:34 064 17.2
2018-Feb-19 18:19 064 17.8
2018-Feb-19 18:14 064 17.8
2018-Feb-19 18:09 064 17.8
2018-Feb-19 18:04 064 17.8
2018-Feb-19 17:49 064 18.3
2018-Feb-19 17:44 064 18.3
2018-Feb-19 17:39 063 18.3
2018-Feb-19 17:34 062 18.3
2018-Feb-19 17:19 109 0 gusting 2 18.3
2018-Feb-19 17:14 140 0 gusting 2 18.9
2018-Feb-19 17:09 141 18.9
2018-Feb-19 17:04 142 18.9
2018-Feb-19 16:49 088 1 gusting 4 18.9
2018-Feb-19 16:44 093 0 gusting 5 18.9
2018-Feb-19 16:39 111 1 gusting 4 18.9
2018-Feb-19 16:34 046 0 gusting 2 18.9
2018-Feb-19 16:19 096 1 gusting 4 18.9
2018-Feb-19 16:14 067 0 gusting 2 18.9
2018-Feb-19 16:09 073 2 gusting 6 18.3
2018-Feb-19 16:04 096 1 gusting 6 18.3
2018-Feb-19 15:49 104 2 gusting 6 18.3
2018-Feb-19 15:44 108 18.3
2018-Feb-19 15:39 138 0 gusting 6 18.3
2018-Feb-19 15:34 070 0 gusting 8 18.3
2018-Feb-19 15:19 067 2 gusting 6 18.9
2018-Feb-19 15:14 006 18.9
2018-Feb-19 15:09 016 1 gusting 5 18.3
2018-Feb-19 15:04 020 0 gusting 6 18.3
2018-Feb-19 14:49 102 18.3
2018-Feb-19 14:44 117 0 gusting 6 17.8
2018-Feb-19 14:39 103 1 gusting 5 18.3
2018-Feb-19 14:34 081 1 gusting 7 17.8
2018-Feb-19 14:19 125 3 gusting 6 17.8
2018-Feb-19 14:14 072 0 gusting 4 17.8
2018-Feb-19 14:09 054 17.8
2018-Feb-19 14:04 080 2 gusting 7 17.8
2018-Feb-19 13:49 090 1 gusting 10 17.2
2018-Feb-19 13:44 075 4 gusting 8 17.2
2018-Feb-19 13:39 057 4 gusting 6 17.2
2018-Feb-19 13:34 102 2 gusting 7 17.2
2018-Feb-19 13:19 071 1 gusting 7 16.7
2018-Feb-19 13:14 075 4 gusting 8 16.7
2018-Feb-19 13:09 097 2 gusting 7 16.7
2018-Feb-19 13:04 089 5 gusting 10 16.7
2018-Feb-19 12:49 074 1 gusting 6 16.1
2018-Feb-19 12:44 086 5 gusting 7 16.1
2018-Feb-19 12:39 116 3 gusting 6 15.6
2018-Feb-19 12:34 103 2 gusting 6 15.6
2018-Feb-19 12:04 082 3 gusting 6 15.0
2018-Feb-19 11:49 055 1 gusting 6 14.4
2018-Feb-19 11:44 071 2 gusting 6 13.9
2018-Feb-19 11:39 070 2 gusting 6 13.9
2018-Feb-19 11:34 072 4 gusting 6 13.3
2018-Feb-19 11:19 035 12.8
2018-Feb-19 11:14 011 2 gusting 5 12.2
2018-Feb-19 11:09 029 0 gusting 5 12.2
2018-Feb-19 11:04 013 11.7
2018-Feb-19 10:49 027 11.1
2018-Feb-19 10:44 033 1 gusting 4 11.1
2018-Feb-19 10:39 11.1
2018-Feb-19 10:34 354 1 gusting 4 11.1
2018-Feb-19 10:19 026 11.1
2018-Feb-19 10:14 347 10.6
2018-Feb-19 10:09 003 10.6
2018-Feb-19 10:04 031 1 gusting 2 10.6
2018-Feb-19 09:49 013 0 gusting 5 9.4
2018-Feb-19 09:44 014 3 gusting 6 9.4
2018-Feb-19 09:39 352 2 gusting 5 9.4
2018-Feb-19 09:34 003 4 gusting 5 9.4
2018-Feb-19 09:19 357 3 gusting 6 9.4
2018-Feb-19 09:14 359 4 gusting 6 9.4
2018-Feb-19 09:09 357 2 gusting 5 9.4
2018-Feb-19 09:04 355 2 gusting 4 9.4
2018-Feb-19 08:49 9.4
2018-Feb-19 08:44 343 2 gusting 4 9.4
2018-Feb-19 08:39 004 1 gusting 4 9.4
2018-Feb-19 08:34 350 2 gusting 5 9.4
2018-Feb-19 08:19 349 9.4
2018-Feb-19 08:14 349 9.4
2018-Feb-19 08:09 348 9.4
2018-Feb-19 08:04 348 0 gusting 2 9.4
2018-Feb-19 07:49 348 9.4
2018-Feb-19 07:44 348 9.4
2018-Feb-19 07:39 348 9.4
2018-Feb-19 07:34 348 9.4
2018-Feb-19 07:19 347 9.4
2018-Feb-19 07:14 346 8.9
2018-Feb-19 07:09 346 8.9
2018-Feb-19 07:04 346 8.9
2018-Feb-19 06:49 355 1 gusting 2 9.4
2018-Feb-19 06:44 355 0 gusting 2 9.4
2018-Feb-19 06:39 355 9.4
2018-Feb-19 06:34 354 9.4
2018-Feb-19 06:19 352 0 gusting 2 9.4
2018-Feb-19 06:14 355 9.4
2018-Feb-19 06:09 355 9.4
2018-Feb-19 06:04 355 9.4
2018-Feb-19 05:49 008 9.4
2018-Feb-19 05:44 008 9.4
2018-Feb-19 05:39 009 9.4
2018-Feb-19 05:34 009 9.4
2018-Feb-19 05:19 014 10.0
2018-Feb-19 05:14 014 10.0
2018-Feb-19 05:09 007 10.0
2018-Feb-19 05:04 006 0 gusting 2 10.0
2018-Feb-19 04:49 012 1 gusting 2 10.0
2018-Feb-19 04:44 006 10.0
2018-Feb-19 04:39 007 1 gusting 2 10.0
2018-Feb-19 04:34 006 10.0
2018-Feb-19 04:19 339 10.0
2018-Feb-19 04:14 339 10.0
2018-Feb-19 04:09 338 9.4
2018-Feb-19 04:04 338 9.4
2018-Feb-19 03:49 353 1 gusting 2 9.4
2018-Feb-19 03:44 355 2 gusting 4 9.4
2018-Feb-19 03:39 005 2 gusting 4 9.4
2018-Feb-19 03:34 353 2 gusting 4 10.0
2018-Feb-19 03:19 10.0
2018-Feb-19 03:14 333 2 gusting 2 10.0
2018-Feb-19 03:09 011 10.6
2018-Feb-19 03:04 016 10.6